| time (UTC) | temp C | wind direction | speed KPH | gust KPH | rain 1hr cm | rain 24hr cm | rain mn cm | humidity % | barometer mb |
| 20260504050022 | -17 | 0.0 | 0.0 | 0.00 | 0.00 | 0.00 | 1010.4 | ||
| 20260504044517 | -17 | 0.0 | 0.0 | 0.00 | 0.00 | 0.00 | 1010.3 | ||
| 20260504043015 | -17 | 0.0 | 0.0 | 0.00 | 0.00 | 0.00 | 1010.4 | ||
| 20260504041509 | 17 | 150 | 0.0 | 0.0 | 0.00 | 0.00 | 0.00 | 84 | 1010.5 |
| 20260504040017 | 17 | 149 | 0.0 | 0.0 | 0.00 | 0.00 | 0.00 | 83 | 1010.7 |
| 20260504034504 | 17 | 149 | 0.0 | 0.0 | 0.00 | 0.00 | 0.00 | 82 | 1010.9 |
| 20260504033002 | 17 | 149 | 0.0 | 0.0 | 0.00 | 0.00 | 0.00 | 82 | 1011.2 |
| 20260504031502 | 17 | 149 | 0.0 | 0.0 | 0.00 | 0.00 | 0.00 | 83 | 1011.2 |
| 20260504030002 | 17 | 149 | 0.0 | 0.0 | 0.00 | 0.00 | 0.00 | 83 | 1011.2 |
| 20260504024600 | 17 | 149 | 0.0 | 0.0 | 0.00 | 0.00 | 0.00 | 84 | 1011.3 |
| 20260504023103 | 17 | 149 | 0.0 | 0.0 | 0.00 | 0.00 | 0.00 | 85 | 1011.2 |
| 20260504021558 | 17 | 150 | 0.0 | 0.0 | 0.00 | 0.00 | 0.00 | 85 | 1011.2 |
| 20260504014606 | 17 | 149 | 0.0 | 0.0 | 0.00 | 0.00 | 0.00 | 86 | 1011.1 |
| 20260504013101 | 17 | 149 | 0.0 | 0.0 | 0.00 | 0.00 | 0.00 | 86 | 1011.2 |
| 20260504011557 | 17 | 149 | 0.0 | 0.0 | 0.00 | 0.00 | 0.00 | 86 | 1011.3 |
| 20260504010056 | 17 | 149 | 0.0 | 0.0 | 0.00 | 0.00 | 0.00 | 86 | 1011.3 |
| 20260504004554 | 17 | 149 | 0.0 | 0.0 | 0.00 | 0.00 | 0.00 | 87 | 1011.4 |
| 20260504003101 | 17 | 149 | 0.0 | 0.0 | 0.00 | 0.00 | 0.00 | 86 | 1011.5 |
| 20260504001604 | 17 | 149 | 0.0 | 0.0 | 0.00 | 0.00 | 0.00 | 86 | 1011.7 |
| 20260504000105 | 17 | 149 | 0.0 | 0.0 | 0.00 | 0.00 | 0.00 | 85 | 1011.8 |
| 20260503234546 | 17 | 149 | 0.0 | 0.0 | 0.00 | 0.00 | 0.00 | 86 | 1012.0 |
| 20260503233047 | 17 | 148 | 0.0 | 0.0 | 0.00 | 0.00 | 0.00 | 86 | 1012.0 |
| 20260503231545 | 17 | 148 | 0.0 | 0.0 | 0.00 | 0.00 | 0.00 | 86 | 1012.1 |
| 20260503230045 | 17 | 148 | 0.0 | 0.0 | 0.00 | 0.00 | 0.00 | 86 | 1012.1 |
| 20260503224545 | 17 | 148 | 0.0 | 0.0 | 0.00 | 0.00 | 0.00 | 85 | 1012.0 |
| 20260503223042 | 17 | 148 | 0.0 | 0.0 | 0.00 | 0.00 | 0.00 | 86 | 1012.1 |
| 20260503221551 | 17 | 148 | 0.0 | 0.0 | 0.00 | 0.00 | 0.00 | 86 | 1012.2 |
| 20260503220039 | 17 | 158 | 0.0 | 0.0 | 0.00 | 0.00 | 0.00 | 86 | 1012.3 |
| 20260503214538 | 17 | 158 | 0.0 | 0.0 | 0.00 | 0.00 | 0.00 | 86 | 1012.5 |
| 20260503213037 | 17 | 179 | 0.0 | 0.0 | 0.00 | 0.00 | 0.00 | 86 | 1012.6 |
| 20260503211537 | 17 | 165 | 0.0 | 0.0 | 0.00 | 0.00 | 0.00 | 86 | 1012.5 |
| 20260503210036 | 17 | 155 | 0.0 | 0.0 | 0.00 | 0.00 | 0.00 | 86 | 1012.3 |
| 20260503204540 | 17 | 149 | 0.0 | 0.0 | 0.00 | 0.00 | 0.00 | 87 | 1012.3 |
| 20260503203035 | 17 | 172 | 0.0 | 0.0 | 0.00 | 0.00 | 0.00 | 87 | 1011.9 |
| 20260503201535 | 17 | 149 | 0.0 | 0.0 | 0.00 | 0.00 | 0.00 | 87 | 1011.7 |
| 20260503200034 | 17 | 166 | 0.0 | 0.0 | 0.00 | 0.00 | 0.00 | 86 | 1011.5 |
| 20260503194534 | 17 | 139 | 0.0 | 0.0 | 0.00 | 0.00 | 0.00 | 85 | 1011.5 |
| 20260503193040 | 17 | 122 | 0.0 | 0.0 | 0.00 | 0.00 | 0.00 | 85 | 1011.2 |
| 20260503191532 | 18 | 120 | 0.0 | 0.0 | 0.00 | 0.00 | 0.00 | 84 | 1011.4 |
| 20260503190041 | 18 | 98 | 0.0 | 0.0 | 0.00 | 0.00 | 0.00 | 83 | 1011.1 |
| 20260503184531 | 18 | 108 | 0.0 | 9.7 | 0.00 | 0.00 | 0.00 | 83 | 1011.2 |
| 20260503183030 | 18 | 104 | 1.6 | 11.3 | 0.00 | 0.00 | 0.00 | 82 | 1011.0 |
| 20260503181529 | 18 | 145 | 6.4 | 11.3 | 0.00 | 0.00 | 0.00 | 81 | 1011.1 |
| 20260503180030 | 18 | 101 | 4.8 | 11.3 | 0.00 | 0.00 | 0.00 | 80 | 1010.8 |
| 20260503174531 | 18 | 142 | 6.4 | 14.5 | 0.00 | 0.00 | 0.00 | 79 | 1011.0 |
| 20260503173028 | 18 | 142 | 1.6 | 9.7 | 0.00 | 0.00 | 0.00 | 80 | 1010.9 |
| 20260503171528 | 18 | 139 | 1.6 | 9.7 | 0.00 | 0.00 | 0.00 | 80 | 1011.0 |
| 20260503081533 | 17 | 150 | 0.0 | 0.0 | 0.00 | 0.00 | 0.00 | 85 | 1014.0 |
| 20260503071533 | 17 | 128 | 0.0 | 0.0 | 0.00 | 0.00 | 0.00 | 90 | 1013.3 |
| 20260503054507 | -17 | 0.0 | 0.0 | 0.00 | 0.00 | 0.00 | 1013.1 | ||
| 20260503053008 | -17 | 0.0 | 0.0 | 0.00 | 0.00 | 0.00 | 1013.2 |